User: anonymous   Login
Location: Poughquag
(41.6090°N, 73.6820°W)
Time: 17:59:50
(UTC-04:00)
Language:

METEOR M2 - Orbit

View from above orbital plane
View from above orbital plane
View from above satellite
View from above satellite

Ground track
Ground track

The orbit data is extracted from the following two-line orbital elements,

1 40069U 14037A   24197.54802761  .00000262  00000-0  14018-3 0  9997
2 40069  98.4372 190.5197 0004512 278.7751  81.2916 14.20995642519650
Epoch (UTC): 15 July 2024 13:09:09
Eccentricity: 0.0004512
inclination: 98.4372°
perigee height: 819 km
apogee height: 825 km
right ascension of ascending node: 190.5197°
argument of perigee: 278.7751°
revolutions per day: 14.20995642
mean anomaly at epoch: 81.2916°
orbit number at epoch: 51965

The dashed part of the orbit path shows where the satellite is in the earth's shadow,  

DLR